Regional Weather Roundup
Issued by NWS

Home | Current Version | Previous Version | Graphics & Text | Print | Product List | Glossary On
Versions: 1 2 3 4 5 6 7 8 9 10 11 12 13 14 15 16 17 18 19 20 21 22 23 24 25 26 27 28 29 30 31 32 33 34 35 36 37 38 39 40 41 42 43 44 45 46 47 48 49 50
000
ASUS43 KFSD 131510
RWRSD

WEATHER ROUNDUP FOR SOUTH DAKOTA
NATIONAL WEATHER SERVICE SIOUX FALLS SD
1000 AM CDT SUN JUL 13 2014

NOTE: "FAIR" INDICATES FEW OR NO CLOUDS BELOW 12,000 FEET WITH NO
SIGNIFICANT WEATHER AND/OR OBSTRUCTIONS TO VISIBILITY.


SDZ001>005-009-010-012>017-131600-
NORTHWEST AND NORTH CENTRAL SOUTH DAKOTA

CITY           SKY/WX    TMP DP  RH WIND       PRES   REMARKS
BUFFALO          N/A     72  54  53 NW10      30.14S
FAITH            N/A     69  56  62 N10       30.17R
MOBRIDGE       SUNNY     67  56  67 NW9       30.10R
$$

SDZ012>016-024>037-041>051-057-063-072>074-131600-
SOUTHWEST AND SOUTH CENTRAL SOUTH DAKOTA

CITY           SKY/WX    TMP DP  RH WIND       PRES   REMARKS
RAPID CTY ARPT SUNNY     72  53  51 NW5       30.22S
PIERRE         SUNNY     74  61  63 NW10      30.10R
CUSTER         MOSUNNY   70  55  59 W12       30.34S
ELLSWORTH AFB  SUNNY     72  56  55 NW3       30.22S
PHILIP         SUNNY     76  59  55 SW8       30.15S
PINE RIDGE     SUNNY     70  62  76 CALM      30.23S
WINNER         FAIR      76  65  68 W7        30.12S
$$

SDZ004>011-016>023-039-040-131600-
NORTHEAST SOUTH DAKOTA

CITY           SKY/WX    TMP DP  RH WIND       PRES   REMARKS
ABERDEEN       PTSUNNY   70  53  54 NW12      30.07S
WATERTOWN      SUNNY     71  50  47 NW14      30.05F
SISSETON         N/A     71  56  58 NW12      30.01F
$$

SDZ017-020-022-023-036>040-048>070-131600-
SOUTHEAST SOUTH DAKOTA

CITY           SKY/WX    TMP DP  RH WIND       PRES   REMARKS
SIOUX FALLS    MOSUNNY   75  64  68 NW6       30.05F
HURON          SUNNY     73  56  54 CALM      30.07S
CHAMBERLAIN    SUNNY     74  65  73 W7        30.10S
MITCHELL       SUNNY     75  63  66 NW7       30.08R
YANKTON        SUNNY     75  66  73 NW5       30.07F
$$

ABBREVIATIONS USED IN REMARKS
   TC - TEMPERATURE IN CELSIUS
  WCI - WIND CHILL INDEX
   HX - HEAT INDEX
  VSB - VISIBILITY



USA.gov is the U.S. government's official web portal to all federal, state and local government web resources and services.